Camarillo, CA

8:05 PM PST on February 19, 2017 (GMT -0800)
Camarillo

Weather History for KCMA - September, 2012

Change the Weather History Date:

Thursday, September 27, 2012

  Actual Average Record
Temperature  
Mean Temperature 66 °F 66 °F  
Max Temperature 75 °F 76 °F 98 °F (2010)
Min Temperature 56 °F 55 °F 44 °F (1948)
Degree Days  
Heating Degree Days 0 1  
Month to date heating degree days 2 9  
Since 1 July heating degree days 35 24  
Cooling Degree Days 1 2  
Month to date cooling degree days 103 67  
Year to date cooling degree days 278 279  
Growing Degree Days 15 (Base 50)    
Moisture  
Dew Point 59 °F    
Average Humidity 79    
Maximum Humidity 93    
Minimum Humidity 64    
Precipitation  
Precipitation 0.00 in 0.01 in 0.01 in (1967)
Month to date precipitation 0.01 0.14  
Year to date precipitation 5.72 11.18  
Since 1 July precipitation 0.04  
Sea Level Pressure  
Sea Level Pressure 29.91 in    
Wind  
Wind Speed 4 mph (SW)    
Max Wind Speed 14 mph    
Max Gust Speed 17 mph    
Visibility 7 miles    
Events      
T = Trace of Precipitation, MM = Missing Value Source: NWS Daily Summary

Daily Weather History Graph

Daily Weather History Graph

Search for Another Location

Airport or City:

Trip Planner

Search our weather history database for the weather conditions in past years. The results will help you decide how hot, cold, wet, or windy it might be!

Date:

Astronomy

Sep. 27, 2012 Rise Set
Actual Time 6:48 AM PDT 6:45 PM PDT
Civil Twilight 6:23 AM PDT 7:10 PM PDT
Nautical Twilight 5:54 AM PDT 7:39 PM PDT
Astronomical Twilight 5:24 AM PDT 8:08 PM PDT
Moon 5:16 PM PDT (9/27) 4:27 AM PDT (9/27)
Length of Visible Light 12h 46m
Length of Day
11h 56m
Waxing Gibbous, 94% of the Moon is Illuminated
Sep 27
Waxing Gibbous
Sep 29
Full
Oct 8
Last Quarter
Oct 15
New
Oct 21
First Quarter

Hourly Weather History & Observations

Time (PDT) Temp. Dew Point Humidity Pressure Visibility Wind Dir Wind Speed Gust Speed Precip Events Conditions
12:55 AM 60.1 °F 57.0 °F 90% 29.91 in 8.0 mi Calm Calm - N/A   Clear
1:55 AM 59.0 °F 55.9 °F 90% 29.90 in 8.0 mi Calm Calm - N/A   Clear
2:55 AM 57.0 °F 54.0 °F 89% 29.89 in 8.0 mi WNW 3.5 mph - N/A   Clear
3:55 AM 57.9 °F 55.0 °F 90% 29.89 in 7.0 mi Calm Calm - N/A   Clear
4:55 AM 57.9 °F 55.0 °F 90% 29.89 in 7.0 mi Calm Calm - N/A   Clear
5:55 AM 57.0 °F 54.0 °F 89% 29.90 in 8.0 mi ENE 3.5 mph - N/A   Clear
6:55 AM 57.0 °F 54.0 °F 89% 29.92 in 6.0 mi East 3.5 mph - N/A   Clear
7:03 AM 57.2 °F 53.6 °F 88% 29.90 in 6.0 mi Calm Calm - N/A   Scattered Clouds
7:14 AM 57.2 °F 55.4 °F 94% 29.90 in 6.0 mi Calm Calm - N/A   Mostly Cloudy
7:43 AM 59.0 °F 55.4 °F 88% 29.91 in 6.0 mi Calm Calm - N/A   Overcast
7:55 AM 60.1 °F 55.9 °F 86% 29.94 in 5.0 mi Calm Calm - N/A   Overcast
8:52 AM 62.6 °F 59.0 °F 88% 29.92 in 4.0 mi Calm Calm - N/A   Overcast
8:55 AM 63.0 °F 60.1 °F 90% 29.95 in 4.0 mi Calm Calm - N/A   Overcast
9:28 AM 64.4 °F 60.8 °F 88% 29.93 in 4.0 mi Calm Calm - N/A   Haze
9:55 AM 66.9 °F 60.1 °F 79% 29.96 in 5.0 mi Calm Calm - N/A   Haze
10:55 AM 70.0 °F 60.1 °F 71% 29.95 in 8.0 mi SW 5.8 mph - N/A   Scattered Clouds
11:55 AM 73.0 °F 61.0 °F 66% 29.93 in 8.0 mi SSW 6.9 mph - N/A   Clear
12:55 PM 72.0 °F 61.0 °F 68% 29.92 in 8.0 mi SW 10.4 mph - N/A   Clear
1:55 PM 73.0 °F 61.0 °F 66% 29.91 in 8.0 mi SW 11.5 mph - N/A   Clear
2:55 PM 73.9 °F 61.0 °F 64% 29.88 in 9.0 mi SW 8.1 mph - N/A   Clear
3:55 PM 72.0 °F 61.0 °F 68% 29.88 in 9.0 mi SSW 12.7 mph - N/A   Clear
4:55 PM 71.1 °F 61.0 °F 70% 29.88 in 9.0 mi SW 8.1 mph - N/A   Clear
5:55 PM 69.1 °F 61.0 °F 75% 29.88 in 9.0 mi SSW 6.9 mph - N/A   Clear
6:55 PM 68.0 °F 61.0 °F 78% 29.88 in 8.0 mi SSW 6.9 mph - N/A   Clear
7:55 PM 66.0 °F 60.1 °F 81% 29.91 in 8.0 mi WSW 5.8 mph - N/A   Clear
8:39 PM 64.4 °F 60.8 °F 88% 29.90 in 7.0 mi SW 4.6 mph - N/A   Mostly Cloudy
8:55 PM 64.9 °F 61.0 °F 87% 29.93 in 7.0 mi SW 3.5 mph - N/A   Overcast
9:31 PM 64.4 °F 60.8 °F 88% 29.92 in 8.0 mi Calm Calm - N/A   Overcast
9:55 PM 66.0 °F 61.0 °F 84% 29.95 in 8.0 mi Calm Calm - N/A   Overcast
10:55 PM 66.0 °F 61.0 °F 84% 29.95 in 8.0 mi Calm Calm - N/A   Overcast
11:55 PM 66.0 °F 61.0 °F 84% 29.94 in 8.0 mi Calm Calm - N/A   Overcast